RH
10 12 23 24 36 31 23 26 26 29 36 43 38 26 18 13 19 55 51 66 93 83 99 74 20 48 61 78 99 98 98 89 73 53 54 52 52 39 46 49 43 46 64 74 55
11 12 18 21 34 36 25 28 30 34 43 48 35 22 17 23 36 74 87 96 74 87 97 94 37 56 72 62 94 99 100 82 62 59 67 69 56 43 40 53 44 36 49 52 63
12 13 20 21 34 42 27 31 31 39 49 51 31 23 29 40 59 80 82 88 80 94 83 98 91 59 76 78 97 98 97 85 71 68 88 83 61 48 44 69 47 26 38 42 44
14 14 20 25 38 44 28 30 35 44 53 52 30 29 29 42 98 87 93 95 88 86 83 99 82 85 75 84 83 99 94 78 71 77 92 85 70 57 42 66 58 38 33 43 47
16 15 17 29 41 44 30 31 40 51 56 55 33 33 27 39 97 64 84 82 64 69 81 98 77 98 86 61 81 93 89 79 78 96 77 87 79 63 44 51 52 45 39 40 42
18 15 17 24 39 42 32 29 43 57 59 58 39 36 32 82 74 45 57 63 63 63 79 95 90 83 87 92 94 91 75 84 72 97 100 95 92 76 55 43 44 46 43 40 44
19 16 16 23 36 39 30 31 43 61 61 61 46 44 39 81 46 38 52 54 60 92 88 95 98 96 97 90 85 85 75 92 89 84 97 93 93 82 69 54 44 48 48 46 54
18 13 16 23 32 40 25 40 50 64 63 60 51 48 49 62 48 42 66 97 61 75 98 88 95 98 92 97 74 96 78 73 71 91 92 82 85 80 72 67 61 60 53 54 51
15 10 16 24 32 40 27 42 58 64 60 59 47 48 92 63 58 55 52 58 56 62 97 97 97 97 86 97 91 88 87 76 74 83 79 72 71 81 75 73 67 62 58 72 58
13 10 17 27 33 33 36 42 62 65 65 67 69 62 84 92 54 57 58 65 80 55 95 99 97 97 83 99 92 86 83 73 79 69 91 76 77 76 90 78 78 75 62 75 61
9 10 17 29 35 30 37 46 66 73 71 81 73 67 99 44 38 44 52 58 86 71 94 98 95 90 95 70 74 69 61 66 72 70 88 86 74 87 75 86 77 78 66 60 76
7 11 18 31 35 33 36 49 69 70 79 90 66 50 42 41 45 79 60 73 86 94 97 98 97 99 98 88 66 64 58 73 65 74 75 68 87 74 70 78 59 60 67 64 64
6 11 18 31 32 34 36 51 74 72 94 97 69 57 52 68 91 82 68 80 93 95 98 98 99 84 89 94 91 75 61 94 88 93 83 73 73 72 70 73 65 44 48 58 66
7 12 19 32 33 30 36 60 70 72 97 99 100 72 67 87 99 88 82 82 97 94 97 97 97 88 88 81 74 78 59 66 72 66 66 69 57 50 42 46 43 40 40 52 66
8 13 21 34 32 32 40 67 68 81 91 96 80 70 83 94 95 97 85 86 89 85 81 96 95 99 98 96 86 78 64 67 68 69 71 68 68 43 48 56 54 44 41 44 73
10 16 23 34 31 34 46 68 73 98 92 84 74 93 98 89 100 94 100 94 96 83 97 98 81 71 79 91 82 96 76 75 71 66 68 60 62 43 48 50 52 55 54 48 49
12 19 23 32 32 34 50 67 92 87 83 78 85 99 95 94 97 99 80 84 98 94 99 92 89 74 87 84 72 75 68 74 82 84 78 51 53 54 48 40 40 50 56 60 56
13 20 26 28 36 37 55 66 87 94 97 77 79 90 97 92 80 82 86 92 92 82 92 89 95 88 87 90 79 79 55 62 65 77 62 52 51 44 41 45 47 46 39 50 64
15 20 25 33 39 40 52 96 87 80 80 84 88 96 84 61 75 91 92 70 80 84 91 86 97 100 84 87 79 74 71 70 65 51 60 56 46 47 46 38 36 29 30 37 49
17 20 25 36 38 45 46 69 77 84 96 84 99 90 80 63 77 81 88 68 67 70 86 91 85 95 95 84 80 78 79 62 59 73 48 49 42 39 42 41 37 35 33 33 38
16 18 26 37 42 46 74 79 78 87 82 96 87 80 73 69 71 81 83 77 62 63 70 88 87 94 97 92 85 85 88 75 62 59 70 56 40 35 40 42 38 34 33 32 32
15 16 26 35 46 51 95 65 63 83 90 86 84 83 83 82 81 84 83 82 84 73 81 85 83 93 92 76 79 77 81 76 71 67 55 54 49 44 40 36 39 41 39 36 33
15 15 26 32 49 66 64 67 68 81 88 86 87 86 87 88 88 89 89 76 79 81 90 94 88 84 90 86 77 88 79 83 77 71 68 69 44 46 42 38 38 38 40 39 36
14 14 21 31 43 89 75 68 73 78 82 80 85 77 80 84 82 87 81 72 77 85 84 83 89 80 86 84 83 82 70 72 82 85 76 68 48 47 46 45 44 40 51 44 39
14 14 15 21 36 51 92 88 90 84 84 81 77 81 85 80 88 93 95 79 78 83 84 82 83 86 80 71 68 74 68 83 84 75 87 63 66 53 53 51 54 56 58 55 53
14 14 15 16 22 43 73 84 97 85 83 88 90 74 74 84 82 90 94 88 83 80 88 84 90 80 73 70 69 65 64 62 71 77 88 77 69 44 45 51 54 58 59 66 63
15 16 18 15 21 45 67 100 100 82 76 98 93 86 83 71 70 72 81 88 97 95 85 93 88 83 83 79 70 65 46 45 48 57 61 83 58 54 68 72 76 73 62 46 52
Wind_Speed
26 23 24 23 24 22 21 22 21 21 23 23 21 22 21 20 21 20 25 25 25 29 28 28 36 35 38 45 47 42 33 36 33 34 17 25 22 27 22 17 25 26 19 15 32
28 26 24 25 24 21 20 22 21 21 22 21 20 19 18 17 18 17 15 23 25 26 29 26 31 33 35 43 47 47 33 42 37 23 26 25 20 27 25 18 21 26 25 16 29
29 29 26 24 24 20 19 21 21 21 21 19 17 15 13 12 14 13 15 24 23 25 31 28 24 28 31 34 37 37 49 36 36 28 16 23 23 23 19 11 21 29 26 30 23
31 31 28 24 23 18 18 20 21 20 19 17 14 12 9 9 5 14 13 6 11 20 28 28 32 29 30 36 39 29 42 48 36 24 18 26 24 23 22 23 22 23 25 27 27
32 31 30 25 23 16 17 20 20 18 17 15 13 9 8 8 7 18 10 13 12 17 33 22 30 29 32 37 30 32 20 37 37 21 26 21 20 25 27 24 22 20 24 29 26
33 32 30 26 23 16 16 20 19 15 14 14 12 10 9 8 10 15 12 15 12 15 23 23 24 31 26 19 30 28 26 21 32 42 16 27 21 21 26 26 22 17 22 26 26
34 34 30 25 21 15 16 19 18 13 11 13 12 11 11 9 16 12 12 13 10 11 19 34 28 32 24 20 28 13 30 16 26 41 29 20 28 25 22 23 21 20 18 21 22
34 34 29 23 19 16 16 18 15 11 10 12 11 10 10 13 13 11 8 15 6 16 14 37 32 33 28 16 26 21 28 32 32 22 24 21 22 18 24 25 23 16 18 17 20
34 34 28 22 17 15 16 16 13 9 9 11 8 7 4 11 10 9 10 10 8 11 14 24 37 32 32 23 29 30 25 34 25 25 20 27 18 18 23 21 24 21 21 14 21
34 32 25 20 15 14 16 15 10 6 7 10 6 6 4 8 9 8 11 9 7 13 7 16 27 30 37 26 25 27 21 28 21 34 25 24 15 17 22 30 23 23 26 15 21
33 29 23 18 14 13 15 12 7 3 6 12 8 7 8 12 10 8 8 7 6 9 8 9 20 29 32 41 27 22 28 22 21 16 19 14 25 19 21 27 37 37 35 34 17
32 26 20 16 12 12 14 13 5 2 5 12 7 7 7 6 6 7 4 2 3 7 7 10 11 29 22 22 24 18 27 23 25 20 17 19 18 16 20 19 22 28 34 32 31
30 23 17 13 11 11 12 10 3 3 4 11 11 9 8 8 2 9 3 2 2 7 12 6 14 32 29 20 16 27 25 18 18 14 10 9 16 20 22 27 26 23 25 36 37
27 19 15 11 10 11 11 6 2 3 1 10 10 10 11 10 10 5 2 8 9 13 12 6 12 26 23 17 19 23 25 19 18 14 8 16 5 24 23 25 26 26 28 32 43
23 16 12 9 9 9 8 3 5 4 2 12 10 11 15 14 9 8 8 12 11 15 3 7 9 17 19 17 16 12 23 18 14 13 7 13 6 8 12 17 16 19 26 30 40
20 14 10 8 8 7 5 4 4 3 3 9 8 11 9 10 13 11 13 16 18 16 5 8 14 18 18 6 13 17 22 15 12 6 3 11 11 6 14 13 12 17 20 23 28
17 12 10 7 6 6 1 3 5 5 2 7 8 10 11 9 20 20 13 7 8 7 12 8 14 17 15 12 14 19 19 5 2 1 3 4 13 14 6 6 7 16 20 18 21
14 10 8 6 4 4 2 6 5 4 3 4 10 11 9 8 15 19 13 10 11 15 9 6 3 13 17 13 8 18 16 5 4 4 5 4 5 10 15 21 18 17 14 22 22
11 9 5 4 1 2 3 6 4 6 8 7 8 8 7 8 10 9 10 9 7 10 5 4 3 13 18 15 13 17 20 5 2 3 6 8 8 4 12 12 11 14 10 11 21
9 6 3 2 3 3 3 6 6 6 6 5 4 5 6 12 8 8 5 2 5 8 6 4 6 13 17 16 15 12 11 4 1 2 1 6 6 5 11 9 10 7 6 7 11
8 5 2 2 4 5 6 7 9 8 10 7 4 7 6 8 5 8 3 2 4 7 5 8 2 10 11 11 12 8 9 3 3 2 1 1 1 13 16 8 6 4 3 5 7
6 4 1 5 7 6 6 9 8 7 7 10 10 6 2 4 3 2 2 1 4 8 7 6 4 6 13 11 14 14 11 9 4 4 4 3 2 8 9 9 6 3 2 2 3
5 3 2 6 7 7 8 9 9 11 9 8 6 9 9 3 2 2 3 2 3 12 10 9 5 6 2 8 15 17 15 14 15 15 9 2 4 10 7 10 13 16 19 17 9
4 1 3 6 6 11 10 11 10 11 11 8 8 8 6 2 5 3 3 4 7 10 10 10 9 5 3 3 7 23 23 20 17 10 19 24 12 9 8 13 16 16 13 17 19
4 1 1 4 9 11 11 8 10 10 10 11 10 10 7 2 3 4 3 2 9 7 7 8 4 10 10 7 8 12 14 17 25 31 21 28 27 25 20 19 15 17 19 24 27
3 3 2 3 7 11 15 15 12 13 12 11 8 10 9 5 7 3 1 2 4 10 5 5 3 5 8 10 13 16 17 18 22 27 33 32 35 29 30 29 30 27 27 28 34
3 4 3 3 8 12 10 13 14 14 14 13 14 9 12 9 8 7 10 10 7 4 8 6 4 4 3 7 10 14 19 22 25 26 24 31 28 19 19 21 23 29 30 31 32
Wind_Direction
344 334 322 320 318 308 305 312 318 316 313 309 311 310 308 298 287 273 258 250 241 227 219 221 214 212 212 209 207 203 207 209 197 204 200 211 208 207 178 184 195 193 202 207 200
343 338 326 319 323 309 305 312 318 317 312 311 316 314 310 301 288 279 260 242 236 233 218 211 208 211 211 209 211 208 206 205 185 203 210 200 208 200 194 199 199 206 201 202 198
343 339 330 323 325 309 303 311 318 317 313 316 321 319 320 312 295 281 281 248 245 229 221 213 191 208 211 206 208 215 217 208 193 189 229 204 196 206 188 185 201 210 209 212 210
342 338 332 329 327 310 302 311 317 317 313 321 321 319 329 328 323 294 299 228 226 225 208 212 187 193 206 205 205 219 222 215 197 219 208 199 210 210 196 203 204 212 207 209 214
340 337 334 331 328 312 304 311 317 316 314 321 315 313 343 347 321 306 289 285 247 231 217 204 192 188 201 206 197 224 216 225 220 218 219 183 207 205 206 209 210 216 208 213 212
338 338 335 333 329 316 309 312 316 314 314 320 308 299 323 334 297 306 300 277 277 236 215 196 180 190 201 209 187 216 202 227 221 227 200 206 189 202 206 213 218 220 218 214 217
338 337 337 334 329 320 314 315 322 318 315 320 305 298 311 286 305 309 310 290 281 212 210 194 184 185 185 173 190 205 201 214 218 220 215 181 192 188 215 212 217 222 223 221 216
337 337 336 335 330 323 319 321 323 323 327 326 311 302 304 315 300 309 320 306 271 247 161 198 198 183 173 163 180 200 195 206 216 216 207 224 207 216 216 220 221 213 226 221 215
338 338 336 336 331 325 326 328 327 335 341 335 329 312 304 314 318 335 321 322 298 252 223 177 203 182 173 169 182 192 197 200 204 210 215 209 207 217 213 218 213 215 217 225 210
339 338 336 336 331 329 331 331 334 342 356 354 357 339 260 269 317 334 335 338 317 270 220 175 202 196 175 177 180 187 192 193 195 211 202 207 192 209 206 207 224 223 225 223 217
339 336 336 337 333 332 335 328 343 17 3 5 324 313 285 273 288 314 323 329 334 276 253 166 189 200 178 186 184 188 186 191 201 211 214 207 221 212 216 219 215 222 217 221 232
338 335 338 337 338 335 339 331 5 12 341 2 359 348 340 325 311 313 316 333 5 155 184 149 168 164 175 174 181 188 176 200 196 207 215 219 222 227 231 254 234 234 225 220 220
337 335 341 337 342 338 341 336 12 197 27 352 12 18 11 353 341 283 248 117 85 137 119 99 136 162 165 181 181 186 186 184 150 170 174 194 237 227 231 232 244 231 232 226 230
336 335 343 338 344 343 343 353 65 164 43 353 357 11 22 16 5 60 71 107 110 140 108 87 127 166 166 148 166 158 180 161 163 172 166 184 247 230 232 234 235 232 228 231 220
336 338 344 342 343 349 349 34 111 103 18 352 354 28 35 25 64 63 89 99 101 143 91 74 145 105 131 146 159 142 157 152 166 150 117 189 241 257 218 229 250 242 238 234 219
337 341 346 352 346 359 1 89 101 48 30 10 25 39 24 69 55 77 80 120 117 121 93 106 135 120 124 125 138 136 152 126 146 195 262 197 204 267 202 216 239 252 258 249 237
338 342 346 5 350 12 22 116 54 35 67 18 46 61 67 71 72 75 72 71 55 115 81 86 139 151 151 125 146 145 144 95 74 92 238 209 217 234 129 219 244 217 223 247 255
338 343 349 7 353 31 159 93 69 82 113 102 62 88 103 103 68 69 72 60 56 117 86 81 118 165 169 139 152 166 147 154 174 177 197 193 230 214 241 243 254 267 258 229 216
338 345 358 19 8 79 178 83 134 148 111 85 65 58 62 113 109 86 79 65 119 117 94 99 84 162 183 168 159 174 222 268 357 335 130 191 235 185 227 234 233 253 270 252 229
337 348 7 35 112 137 153 111 145 168 141 106 51 61 113 121 104 87 63 89 117 125 92 92 99 168 169 171 174 183 197 192 175 82 221 186 234 221 185 210 217 233 261 258 242
334 340 3 134 130 157 117 122 142 149 141 133 108 97 111 124 136 77 81 320 255 203 162 106 100 179 197 182 171 190 182 155 150 340 301 135 351 196 186 190 167 191 247 258 262
324 333 200 165 147 146 125 153 152 171 167 138 130 122 121 149 104 65 79 263 28 168 156 142 125 129 208 219 209 210 209 208 160 221 255 322 290 201 220 195 190 169 49 349 304
321 326 166 173 146 158 155 160 158 154 153 145 138 155 157 151 172 174 203 266 141 163 149 148 151 135 210 250 231 225 213 209 226 242 250 223 234 194 247 259 254 272 293 285 257
307 278 190 183 188 160 175 168 170 172 172 173 162 153 126 125 181 248 239 201 191 179 172 167 168 197 183 171 211 227 231 227 224 233 230 229 214 193 250 289 293 292 266 273 271
296 196 220 187 193 182 168 186 181 181 184 169 169 154 145 155 135 150 205 187 195 174 168 176 186 217 239 260 234 235 243 233 226 239 232 244 241 254 259 265 278 289 281 279 275
261 285 244 227 184 188 181 173 182 199 182 184 172 195 174 173 187 168 218 126 119 201 189 208 318 288 269 263 262 258 253 248 236 242 249 259 260 255 253 248 248 245 248 267 272
219 251 226 204 192 186 200 196 181 196 194 186 197 183 210 214 213 228 194 195 174 230 223 240 255 300 285 261 286 275 263 255 256 256 257 246 265 272 270 262 261 264 268 267 268